Wind_Speed
71 69 68 70 73 72 71 68 67 66 64 62 59 56 53 52 51 53 53 51 50 49 46 45 45 44 43 44 43 41 42 43 42 43 42 38 38 40 42 47 49 51 51 49 48 46 48 51 48 40 39 41 40 41 42 41 42 41 40 37 35 32 30 30 30 28 24 23 21 20 21 21 21 20 20 19 18 18 18 18 18 17 17 17 16 15 14 12
72 71 68 69 72 72 70 69 67 66 63 61 58 56 53 52 52 53 53 52 51 49 47 45 46 46 45 45 42 39 38 38 37 37 40 40 38 40 41 43 47 49 49 47 45 44 47 52 47 41 40 42 41 42 43 43 42 41 39 36 35 35 34 33 31 28 25 23 22 21 21 21 21 21 20 20 19 19 19 19 18 18 17 17 16 15 14 13
70 68 67 67 70 71 69 69 68 65 62 59 57 56 54 52 52 53 53 52 51 48 47 46 45 46 47 47 42 39 37 36 35 33 38 39 37 40 41 42 46 48 49 47 44 43 46 51 48 42 42 43 43 44 44 44 43 41 39 37 37 37 37 34 31 27 25 25 24 23 22 22 22 22 22 21 20 20 20 19 19 18 17 16 16 15 14 13
69 68 66 66 68 69 68 68 67 65 61 57 56 55 54 53 52 53 53 52 51 48 46 46 45 46 47 48 44 39 36 35 35 34 37 38 36 39 41 43 45 46 49 48 46 43 45 51 49 44 44 46 46 46 46 44 43 43 41 40 40 40 38 35 32 29 29 29 27 24 23 24 24 24 23 22 22 21 20 19 19 18 17 16 15 14 13 12
69 69 66 65 67 67 66 66 66 64 60 55 54 55 54 53 52 53 53 52 51 48 46 45 44 45 46 47 46 42 37 35 36 36 36 36 36 37 39 42 44 45 49 51 50 46 45 50 51 46 45 47 48 48 46 45 45 44 43 43 43 40 37 34 33 32 31 30 28 26 25 25 25 25 24 24 23 21 19 19 18 18 17 17 16 15 14 13
65 68 67 66 67 66 64 64 65 64 60 55 54 54 54 53 52 53 53 52 50 47 46 45 44 44 45 44 45 45 40 37 38 37 36 36 35 35 36 40 42 44 47 51 52 49 46 49 53 49 45 46 47 47 46 46 46 44 43 43 41 38 34 33 34 33 32 31 30 28 26 26 26 25 25 25 23 20 20 20 19 19 18 17 16 15 14 13
64 66 67 66 66 66 63 62 62 62 59 56 54 54 54 53 53 53 53 51 49 47 45 45 44 42 42 43 43 45 42 39 41 40 38 38 37 35 35 37 40 42 45 50 52 50 47 49 54 52 48 47 45 46 47 47 45 43 43 42 41 38 36 36 36 34 33 32 31 30 29 27 26 25 25 25 22 22 22 22 21 19 18 16 15 14 13 11
65 65 65 64 65 66 64 62 61 61 59 57 55 55 55 53 53 53 52 50 48 47 45 44 43 41 41 41 42 45 43 41 42 42 40 41 41 38 35 34 37 41 43 47 50 49 48 49 54 53 50 50 46 47 48 46 45 45 45 43 41 39 38 39 37 36 35 33 32 32 30 28 27 26 26 24 23 24 23 22 22 20 18 17 16 15 13 12
67 65 65 64 65 65 65 63 61 60 59 58 56 56 55 54 53 53 52 50 48 46 44 43 42 41 41 40 42 43 40 40 43 43 42 42 43 42 39 35 34 38 42 45 47 49 48 50 55 54 52 52 49 48 47 46 46 47 47 43 41 39 39 40 38 37 36 35 34 34 32 31 29 28 27 25 24 25 24 23 22 20 20 18 17 16 15 14
69 64 66 68 66 65 64 62 61 59 59 58 57 56 57 55 53 52 51 49 47 45 44 43 42 41 40 40 41 40 36 37 40 42 42 42 43 43 43 39 35 35 39 42 45 48 48 52 57 55 53 55 51 49 48 48 49 50 48 44 41 40 40 41 39 38 38 37 36 35 34 33 31 29 27 26 26 25 24 24 22 21 20 18 17 17 16 15
71 64 65 68 66 65 63 61 60 59 59 58 57 58 57 57 54 52 51 49 47 45 44 42 42 41 40 40 40 38 38 40 40 41 41 41 42 42 43 42 39 36 37 40 43 46 49 55 59 56 54 54 51 49 48 50 52 51 48 45 44 44 43 43 41 41 39 38 38 36 36 35 33 30 28 27 27 26 25 24 23 22 21 19 19 18 17 16
73 66 63 66 66 64 63 61 60 59 60 59 58 59 58 57 55 53 50 48 47 46 44 43 41 40 40 40 40 41 42 43 43 42 39 39 41 42 42 42 41 38 36 37 41 45 50 57 60 56 56 54 50 50 49 51 52 50 48 46 47 46 46 46 43 42 40 38 38 37 37 36 33 31 30 29 29 28 26 26 25 24 22 21 21 19 19 19
71 70 65 66 68 66 64 61 61 61 61 60 60 60 60 58 56 54 51 48 47 46 44 43 40 39 41 42 42 43 44 44 46 45 40 39 40 41 42 42 41 39 36 36 39 43 50 58 60 57 57 53 51 51 51 52 52 50 49 49 48 48 48 46 44 43 40 39 38 38 37 35 33 34 33 31 30 29 27 27 26 25 24 23 22 21 21 20
67 71 67 68 69 68 65 62 62 63 62 62 61 61 60 59 57 54 52 49 48 47 45 44 41 41 44 45 45 45 45 44 45 45 41 38 38 40 41 41 40 38 36 36 36 40 50 58 58 58 58 54 52 52 51 52 51 50 50 51 50 49 49 46 45 44 42 40 39 39 37 34 35 36 34 32 32 30 28 28 26 25 25 24 23 22 21 20
66 70 68 70 71 68 65 64 64 65 64 63 63 63 62 60 57 55 54 51 50 49 46 45 44 44 45 47 47 46 46 46 45 42 39 36 36 37 38 40 39 37 34 35 35 40 51 57 57 58 59 55 52 52 51 50 50 50 51 52 50 50 49 48 47 46 44 42 41 40 37 35 37 36 33 33 32 30 29 29 27 26 25 24 23 21 20 20
66 68 67 69 71 68 66 66 67 67 65 65 65 65 63 60 57 56 55 52 52 51 48 48 47 45 46 49 50 48 47 47 44 41 37 34 33 34 35 37 38 36 33 33 35 39 51 57 57 59 59 55 53 52 52 51 51 52 53 52 51 50 50 48 48 47 45 43 41 40 37 36 38 35 33 33 31 31 30 29 27 26 24 24 23 22 21 20
67 64 64 70 73 69 68 69 69 68 67 67 67 66 63 61 58 56 55 54 54 54 52 50 49 49 50 49 50 50 48 45 43 41 37 33 32 34 35 36 36 36 34 34 35 39 50 56 57 58 59 56 53 52 52 52 52 54 54 52 51 51 50 48 47 46 44 42 41 40 38 38 38 35 33 33 32 32 31 29 28 26 25 24 23 23 21 21
72 62 62 70 75 71 71 71 70 70 69 69 69 67 64 62 60 57 57 57 55 56 56 54 52 54 54 48 46 50 50 48 45 42 37 33 34 36 36 36 36 35 34 35 35 39 49 56 58 59 59 56 54 54 53 52 51 52 53 51 51 52 51 47 45 44 43 41 41 41 39 38 37 34 34 34 33 32 32 30 28 26 26 25 24 24 23 22
77 65 61 68 75 73 73 73 72 71 71 72 71 68 65 63 62 60 60 60 58 58 57 55 54 52 49 44 43 46 48 49 47 42 37 34 35 36 37 37 36 36 35 35 36 39 48 56 59 60 61 58 56 55 53 51 50 50 50 49 50 51 48 45 43 42 43 42 42 41 39 37 38 36 36 36 35 33 32 30 28 27 27 27 26 25 24 23
79 68 62 68 75 73 74 74 73 72 72 73 71 69 68 66 65 65 62 60 58 57 54 53 53 48 44 43 44 45 47 48 44 39 36 35 35 37 38 38 37 37 36 36 37 39 46 55 60 60 60 58 57 55 53 51 50 50 50 50 51 49 46 45 44 43 43 43 42 41 40 40 40 39 37 37 35 33 31 30 29 29 28 27 26 25 25 24
81 69 63 68 76 74 75 75 73 73 73 72 70 69 67 65 64 62 57 56 57 59 57 54 53 48 45 45 45 45 47 46 42 38 37 36 36 38 38 38 38 38 37 37 38 41 46 53 59 59 58 55 55 54 52 51 50 52 53 52 50 48 47 47 46 44 44 45 44 44 44 43 41 39 38 37 36 32 31 31 30 29 29 28 26 26 26 26
82 71 64 69 76 75 75 75 74 74 73 72 69 66 63 60 59 55 53 56 58 60 60 55 53 50 47 46 45 45 46 44 41 40 39 38 37 37 38 38 38 37 37 38 39 42 44 49 57 59 56 53 52 52 52 52 52 52 52 49 47 48 49 48 47 46 45 46 46 47 47 43 40 39 39 38 36 33 32 32 30 30 29 27 26 26 26 26
84 73 65 70 76 75 76 75 74 74 73 71 67 64 61 58 58 56 56 60 60 60 59 56 54 51 48 47 45 44 44 42 40 39 39 37 36 36 36 37 37 36 37 39 39 41 43 47 56 59 56 54 52 52 53 53 52 51 49 47 46 48 49 49 48 47 46 47 48 47 46 43 41 41 40 39 36 33 32 31 31 30 28 27 26 26 25 25
84 72 64 68 75 76 76 75 75 75 72 68 64 63 61 59 59 59 59 60 59 58 57 57 55 52 49 47 44 44 43 41 39 38 37 36 34 34 35 34 35 35 37 38 39 42 44 48 55 58 56 54 52 52 52 51 51 50 48 48 47 49 51 50 48 47 47 48 48 47 47 45 42 42 40 37 36 34 32 31 30 29 28 27 26 25 24 25
78 71 64 67 75 77 75 75 76 74 70 66 65 63 61 60 61 62 60 58 56 56 56 56 55 54 50 46 44 44 43 42 40 37 36 34 32 33 33 33 34 35 35 36 39 44 48 51 54 56 55 52 50 49 49 50 51 50 49 49 49 50 52 51 48 48 48 48 48 48 48 46 43 43 40 38 38 36 33 32 30 29 29 28 26 24 25 25
72 68 66 69 77 77 76 77 75 73 70 67 65 63 60 60 62 62 59 56 57 58 57 55 53 52 49 46 45 45 43 43 41 38 37 35 33 33 33 34 35 35 34 36 40 45 49 52 55 56 53 49 48 48 47 50 51 50 49 49 49 51 51 50 48 47 48 49 49 49 50 48 45 44 43 41 41 38 35 33 31 30 29 27 26 26 26 26
71 67 66 72 77 76 75 75 73 72 70 67 66 63 61 61 61 60 58 57 59 58 56 54 51 49 46 44 44 44 44 44 41 40 39 37 35 35 35 36 35 34 35 37 41 44 48 52 56 56 53 49 48 48 48 49 50 50 49 48 49 50 51 49 47 48 49 50 50 50 50 50 48 45 44 43 41 39 37 34 31 30 29 27 26 26 26 26
72 68 68 74 75 74 74 73 72 71 69 67 67 64 62 61 60 60 60 60 61 59 55 52 50 49 47 44 43 43 43 43 41 41 40 38 38 37 37 36 35 36 37 38 41 43 47 52 56 56 52 49 49 48 47 47 49 49 48 47 48 48 49 48 47 48 50 52 53 51 50 52 51 46 45 45 42 40 37 34 32 31 29 27 27 27 27 27
72 70 71 75 75 75 75 73 72 71 70 69 68 65 62 61 61 61 61 62 62 59 54 50 48 49 48 45 44 42 41 41 41 39 38 38 38 37 37 37 37 39 39 38 41 43 47 52 54 53 50 49 48 46 46 45 46 47 47 46 46 46 47 48 48 49 51 54 55 52 51 54 53 49 47 47 43 39 36 35 34 32 29 28 27 27 27 27
73 72 74 76 77 77 76 75 73 71 70 70 67 64 63 63 64 63 62 63 61 58 53 50 49 48 47 45 44 42 41 41 40 39 39 39 37 36 37 37 37 39 40 40 42 44 48 51 54 54 52 52 50 47 46 45 46 47 47 47 46 45 46 48 50 51 53 56 56 53 52 54 55 52 49 48 44 38 35 36 36 32 30 30 28 28 28 28
73 73 75 77 77 77 76 76 74 70 69 68 65 64 65 65 64 64 64 62 59 57 54 51 49 48 46 45 44 43 43 42 41 42 42 41 39 39 39 39 39 41 41 41 42 44 48 51 53 55 56 55 53 49 47 46 46 48 48 48 47 46 47 49 51 53 55 57 56 54 54 55 58 55 50 48 45 39 37 38 36 33 32 31 30 29 28 28
73 74 76 77 77 76 76 75 73 71 68 65 64 65 66 66 65 64 63 61 59 57 55 52 50 48 47 46 45 44 44 43 43 44 43 42 41 40 40 41 40 41 42 42 43 45 48 51 53 55 58 58 56 52 50 48 48 48 49 49 48 48 49 50 53 55 56 57 56 55 55 57 60 56 50 47 45 41 39 38 37 34 33 33 32 31 31 30
74 75 77 78 78 77 76 73 71 71 70 66 65 65 64 66 66 63 61 60 60 57 54 53 50 48 49 49 49 47 46 44 44 45 44 42 41 39 40 39 38 39 40 40 43 45 48 50 52 55 58 61 60 57 53 51 50 49 49 48 48 49 51 51 53 54 55 55 55 55 56 58 59 56 50 46 44 42 40 38 37 36 35 35 34 34 33 31
75 76 78 78 78 76 74 72 71 70 68 67 67 65 64 65 63 62 62 61 60 57 55 53 51 49 49 49 49 49 48 47 45 44 44 43 41 40 40 40 39 39 40 40 42 44 46 47 48 52 56 60 60 59 56 53 50 49 47 47 47 48 49 50 50 51 53 53 53 53 55 57 57 55 51 46 44 44 42 41 39 38 37 37 36 35 34 33
76 77 78 78 77 75 73 72 71 68 67 66 66 66 66 65 63 62 63 62 62 59 55 53 52 50 50 49 49 48 48 47 45 45 44 42 40 38 39 40 39 39 40 41 42 43 46 46 46 49 53 55 56 56 54 52 50 50 49 49 49 47 48 49 49 49 51 53 53 54 56 57 56 54 51 47 46 45 44 43 42 40 37 37 37 36 36 35
76 77 77 75 74 73 73 72 69 67 66 65 65 65 65 64 63 63 62 61 61 59 56 55 54 52 51 50 49 48 47 46 44 43 42 40 38 37 37 37 37 38 38 39 41 42 45 47 48 49 51 52 53 52 52 52 51 51 51 51 50 48 46 47 48 48 49 52 54 54 55 55 54 54 53 50 48 46 44 44 43 42 40 38 37 37 37 37
73 75 74 72 72 73 73 71 68 67 65 63 63 63 63 61 61 62 61 59 59 58 56 56 56 54 52 51 48 47 46 46 45 43 40 39 38 36 35 36 36 36 37 39 41 43 44 46 48 50 51 50 50 50 50 50 50 50 51 51 49 47 47 47 47 48 49 51 54 54 54 54 54 55 54 51 48 46 43 42 42 43 42 40 39 38 38 38
71 73 73 73 74 75 74 71 69 67 65 64 63 61 61 60 60 60 60 59 58 56 55 54 54 53 52 51 50 47 45 46 45 42 41 39 37 35 35 36 36 36 38 40 43 45 45 46 48 50 52 51 49 49 49 50 50 49 50 49 48 48 48 48 49 50 50 51 53 54 55 55 54 53 52 49 47 46 43 43 42 42 42 42 41 40 39 39
72 75 76 76 77 77 75 73 70 69 68 67 65 63 62 62 60 59 58 57 56 54 54 53 51 50 50 51 49 46 45 44 43 41 41 39 38 36 35 35 35 37 38 40 45 48 47 48 49 50 51 52 51 51 52 52 52 51 51 50 49 49 48 48 49 50 50 50 52 53 55 56 54 51 49 48 47 45 43 42 42 41 42 43 43 42 41 41
73 76 78 78 79 79 76 74 72 71 70 67 65 65 65 63 61 59 59 57 54 52 51 51 50 48 48 48 45 42 41 41 40 39 38 36 36 35 34 33 34 34 36 39 45 49 50 49 49 50 52 53 54 55 54 53 52 51 51 52 51 51 50 50 50 50 50 51 52 54 55 56 53 50 48 46 46 45 43 42 42 42 42 43 44 44 43 43
73 75 79 80 81 80 78 76 74 72 70 66 65 66 66 64 62 61 59 56 53 51 49 48 48 47 47 46 44 40 39 39 38 37 36 34 33 33 32 31 31 32 35 39 42 47 51 52 52 52 52 52 54 55 55 54 53 52 52 52 51 51 50 50 50 51 50 51 52 54 56 56 54 52 49 45 44 45 44 44 44 44 44 44 44 44 45 45
73 75 78 80 81 80 78 76 73 70 68 67 67 67 65 64 63 62 59 55 53 51 49 48 48 47 46 45 42 40 38 38 37 36 35 34 33 32 30 29 29 30 33 36 39 42 47 52 54 55 54 53 53 54 54 55 55 54 54 54 53 53 53 52 53 53 52 53 53 53 56 57 55 55 52 48 46 46 46 46 46 45 45 44 45 45 46 47
73 74 76 78 80 79 77 75 72 70 68 67 67 66 65 64 64 62 60 56 53 52 50 50 49 48 47 45 43 40 37 37 36 34 33 32 32 31 30 30 29 30 32 35 37 39 43 48 52 54 56 56 55 55 55 55 56 57 57 57 57 57 57 56 57 56 56 56 55 55 58 60 57 56 55 52 51 50 49 48 46 45 46 46 46 45 45 46
74 74 76 77 79 78 76 74 72 70 69 67 67 67 66 65 64 63 60 57 55 53 53 52 51 50 49 48 46 43 39 38 38 35 33 33 33 32 32 31 30 31 33 34 36 37 40 43 47 51 54 57 59 59 58 58 58 59 59 60 60 60 59 59 59 59 60 61 59 59 62 63 59 58 57 55 54 53 51 50 48 46 46 46 46 45 45 45
76 77 77 77 79 78 77 74 71 69 68 68 67 67 66 66 65 64 61 57 55 55 55 54 53 51 49 48 47 43 40 39 39 38 36 36 36 36 35 33 32 33 34 35 36 36 38 41 44 46 51 54 56 55 54 56 58 60 61 60 61 61 62 62 61 61 63 64 63 63 64 63 61 60 60 57 55 54 53 53 52 49 47 46 46 47 47 46
77 80 80 79 80 79 77 75 73 71 69 68 68 68 68 68 67 65 62 59 57 57 57 56 55 52 50 49 48 45 42 42 43 42 39 39 39 38 37 35 34 35 36 37 38 39 40 43 44 46 49 50 49 46 46 50 55 58 59 59 59 60 61 62 62 63 63 64 66 66 64 64 63 62 62 60 58 57 55 54 53 52 50 50 49 49 49 48
77 80 80 79 79 79 77 76 74 72 70 69 69 69 69 70 69 67 64 61 59 59 59 59 57 55 53 52 51 48 45 44 45 44 42 42 41 40 39 38 37 37 38 39 40 41 43 45 47 47 48 48 47 45 45 47 49 52 54 56 58 59 60 62 63 63 62 63 66 66 64 65 65 63 62 61 59 58 56 53 53 53 53 53 53 52 51 50
73 76 77 75 73 72 72 72 72 71 71 71 71 71 71 71 70 69 67 63 62 62 61 61 60 58 56 54 52 50 48 47 47 46 45 44 43 42 42 42 41 40 40 41 43 43 45 47 47 47 48 48 47 47 46 45 46 48 51 53 55 56 59 61 62 62 60 60 64 65 64 65 65 62 62 61 60 59 58 57 56 56 55 55 55 54 53 52
66 71 74 74 71 69 68 69 72 74 74 74 74 74 73 72 71 70 68 66 65 64 63 62 61 59 58 56 54 52 51 50 48 48 48 47 45 44 43 43 42 41 41 42 43 44 45 46 46 47 48 48 49 49 48 46 46 47 49 52 54 55 58 59 61 61 60 62 64 64 64 66 65 63 62 63 63 63 62 62 60 57 55 54 54 53 53 51
60 65 70 71 71 70 71 73 75 76 76 76 77 76 74 73 72 71 69 67 66 65 63 63 62 59 58 57 55 54 52 50 48 48 47 46 45 43 43 42 42 41 41 41 41 43 43 44 45 47 49 51 51 50 49 49 48 48 48 49 52 56 58 59 60 59 61 64 63 63 66 66 62 61 62 62 63 63 62 59 55 52 51 51 51 51 51 50
57 62 65 68 70 72 74 75 75 75 76 76 76 74 73 73 72 71 70 68 67 65 63 62 61 60 58 57 55 53 51 49 48 46 45 44 43 42 41 41 41 41 42 41 42 42 42 43 45 46 50 52 51 51 51 50 50 51 50 49 50 54 56 57 58 58 59 62 62 64 65 59 55 56 57 57 59 58 56 53 50 49 48 48 49 50 50 50
55 60 64 67 70 73 74 74 76 76 73 71 71 71 71 70 71 71 71 69 67 65 63 62 60 59 58 57 54 51 50 49 48 46 46 45 45 45 44 44 44 44 44 44 45 44 45 46 46 48 50 50 50 52 51 49 53 55 52 48 48 50 52 54 56 57 58 60 62 63 59 51 51 54 53 53 56 56 53 51 50 49 49 49 50 51 51 52
Wind_Direction
216 216 216 218 219 218 219 220 220 221 222 223 223 223 221 220 219 218 219 220 223 224 224 221 217 219 221 222 225 227 230 232 235 236 236 239 227 215 215 215 213 210 208 211 214 213 212 214 211 204 200 198 199 201 202 202 201 203 203 203 202 201 199 198 199 199 191 188 187 183 184 182 181 179 175 175 172 169 168 164 161 158 155 151 149 149 148 147
215 215 215 217 219 219 219 219 219 220 221 222 222 222 220 219 218 217 219 219 222 224 223 222 218 219 221 222 224 225 229 232 235 237 234 237 232 218 213 213 211 210 209 210 214 214 212 213 211 204 198 196 198 201 202 202 202 203 204 203 203 201 200 199 199 195 189 190 190 188 187 184 183 181 179 178 175 175 172 167 166 163 160 156 155 154 152 152
214 215 214 216 219 220 219 219 219 219 220 221 220 220 218 217 217 217 218 219 221 223 223 222 220 218 220 223 223 224 228 231 233 235 233 236 235 223 216 214 211 209 208 209 213 214 212 213 212 206 198 196 198 200 202 202 202 203 203 204 204 204 202 200 199 194 189 192 193 191 189 185 185 184 182 180 179 180 177 173 172 169 166 163 161 159 158 158
214 214 213 214 218 219 219 219 218 218 218 218 218 218 216 215 215 216 218 219 220 223 223 222 221 218 220 223 223 223 223 225 229 233 233 235 236 226 219 216 212 209 207 206 211 213 213 215 215 208 198 196 197 199 201 201 202 202 202 204 206 206 203 200 199 195 192 195 194 192 191 187 187 187 184 183 184 183 180 179 176 174 171 170 169 166 165 165
212 212 211 212 218 219 218 219 218 218 217 215 215 215 214 213 213 215 217 218 220 222 222 221 221 219 221 223 222 223 223 222 227 231 232 232 233 228 222 219 215 211 209 207 210 213 214 216 218 211 200 197 197 198 200 200 202 203 203 205 207 207 204 200 199 197 195 197 196 194 193 190 190 188 187 187 184 182 183 184 182 179 178 176 174 172 172 172
211 211 210 211 216 219 218 218 218 217 215 213 213 213 211 210 211 213 215 217 220 221 221 220 221 219 221 223 222 223 224 223 227 228 227 228 229 227 225 223 218 215 213 210 211 213 214 217 219 214 203 198 198 197 199 201 202 203 205 207 208 208 206 203 202 199 197 199 198 197 195 194 193 190 190 189 184 184 188 188 187 186 184 180 179 179 179 180
209 210 209 209 213 216 217 217 217 217 213 211 211 210 210 209 209 212 214 216 219 221 221 220 221 219 220 221 220 222 221 222 226 225 224 226 229 229 227 225 223 220 217 214 213 215 215 216 220 217 203 196 198 197 199 202 202 204 207 208 207 205 204 205 205 201 199 200 199 199 198 197 195 193 194 190 186 191 191 190 190 189 189 186 186 187 187 190
207 209 207 207 212 215 215 216 215 214 211 209 209 208 209 208 208 211 213 215 218 219 220 220 220 218 218 219 219 221 219 221 227 227 225 227 230 232 231 228 225 223 221 217 216 216 215 216 220 218 204 193 196 198 199 201 202 205 208 208 207 205 203 206 206 203 201 201 201 202 200 198 197 196 197 192 192 196 193 193 195 192 194 194 194 195 196 199
207 208 206 205 210 212 212 214 213 210 208 207 207 206 206 206 207 210 212 214 216 218 218 219 218 217 217 216 218 219 218 221 227 230 230 230 231 233 233 233 229 225 223 221 219 217 216 216 219 218 206 193 194 198 198 200 202 206 208 208 209 207 207 208 206 205 204 202 202 202 201 200 199 199 199 196 198 200 197 198 199 198 200 201 202 204 206 208
205 205 205 203 206 209 208 209 209 206 205 206 205 204 204 204 206 209 211 213 214 215 216 217 217 217 217 216 218 216 213 220 226 229 231 233 233 233 233 234 233 228 224 222 221 218 216 215 216 216 205 193 194 197 197 200 203 206 207 206 208 209 210 211 208 207 205 204 204 203 203 203 201 201 202 202 204 204 202 203 203 204 207 208 211 214 217 219
202 203 204 203 203 206 205 204 205 204 203 204 203 203 204 202 204 207 209 211 212 213 214 214 215 215 216 215 216 212 208 215 223 227 229 231 233 232 232 233 233 231 225 220 219 217 214 213 214 212 200 191 193 196 198 201 203 205 204 203 207 208 210 212 210 209 207 206 206 204 204 205 203 203 204 208 209 208 209 209 209 211 212 215 218 221 224 226
198 200 200 203 205 204 203 202 203 202 202 203 202 202 203 202 203 205 208 210 210 212 212 213 213 213 215 214 212 210 209 214 221 225 226 227 229 229 229 231 232 232 227 219 215 213 212 212 212 207 195 190 194 196 198 202 204 204 203 204 207 208 210 211 211 211 209 208 209 207 206 206 204 206 207 211 213 211 213 215 215 217 218 220 222 225 228 231
196 199 196 200 205 204 202 201 201 201 201 202 201 201 202 201 201 203 206 208 209 211 212 212 211 211 213 211 209 210 210 214 219 224 224 225 226 226 226 227 229 230 228 222 214 212 211 210 209 201 192 190 194 196 199 201 202 203 202 204 207 209 211 211 211 212 210 210 210 210 209 207 205 209 209 211 215 214 216 219 220 223 224 225 226 228 231 234
196 199 198 199 203 203 201 199 200 201 201 201 200 200 201 201 200 200 203 206 207 208 208 210 209 209 212 210 208 210 209 212 217 220 223 223 224 224 223 223 224 225 226 224 219 214 210 207 204 198 191 190 194 197 200 202 202 202 203 205 207 209 211 211 212 212 211 211 211 212 210 208 210 212 210 211 215 216 218 221 223 225 227 228 229 230 232 235
197 197 199 201 202 201 199 197 198 199 200 200 198 199 200 200 200 199 201 203 206 207 206 207 206 207 213 212 209 209 208 211 216 218 220 221 222 224 223 223 223 222 224 225 224 219 210 203 202 197 191 190 194 198 201 202 202 202 204 206 207 210 210 210 212 212 212 211 212 213 210 210 214 214 213 214 217 217 218 221 223 225 228 229 231 230 231 233
198 195 198 202 201 199 197 195 197 198 199 198 197 198 199 199 200 199 200 201 204 207 206 206 204 207 215 214 209 209 210 213 216 217 218 221 227 229 228 228 228 226 227 228 227 222 211 202 199 196 191 191 195 198 201 201 201 203 206 207 208 211 212 211 212 213 212 211 213 214 211 212 216 214 215 217 219 220 220 221 223 225 228 230 233 233 232 234
202 198 200 201 199 197 195 194 196 197 198 198 197 197 197 198 199 199 200 200 201 203 204 206 205 208 215 215 211 211 213 216 217 218 222 229 233 235 233 233 233 232 231 231 230 223 212 202 197 194 192 192 195 199 202 201 202 204 207 208 209 212 213 212 214 215 214 213 214 215 212 214 218 215 215 218 220 222 222 222 224 226 229 231 234 236 236 236
209 201 200 200 197 194 194 194 196 197 197 197 196 196 196 196 197 198 199 200 200 200 202 204 204 209 214 213 212 214 218 222 224 227 231 234 234 234 235 235 235 235 232 232 232 224 214 204 196 193 192 193 196 200 202 203 204 206 207 209 210 213 214 213 213 215 216 215 216 217 215 216 219 216 217 219 219 222 223 222 224 227 230 232 234 237 237 238
212 202 200 199 197 194 193 194 195 196 197 197 196 195 195 195 195 198 199 200 201 201 203 204 206 212 215 213 213 216 221 225 229 231 232 231 231 232 234 234 235 236 234 234 233 226 217 208 199 194 193 193 196 200 203 204 206 209 209 210 213 215 216 215 214 216 217 216 217 219 217 217 220 218 218 220 219 221 224 224 224 227 230 232 233 236 238 239
212 205 202 200 198 195 193 194 195 196 197 197 196 195 195 195 195 197 198 199 202 203 205 206 210 214 214 213 215 216 220 225 228 229 228 227 227 229 231 233 234 235 235 234 232 227 219 211 204 198 193 194 198 201 204 206 207 209 209 210 214 215 215 216 215 216 219 219 218 220 218 218 220 219 218 221 220 220 225 226 225 227 229 232 235 237 239 240
213 207 206 202 199 196 194 194 195 196 197 197 197 197 197 197 198 200 199 198 202 206 207 207 211 214 212 211 212 213 218 223 225 225 225 224 225 227 229 232 233 234 235 234 231 227 220 214 208 200 194 196 200 202 205 207 208 210 210 209 213 213 214 216 215 214 218 220 219 219 220 218 220 221 220 223 222 219 222 226 227 228 229 231 234 237 240 242
212 208 208 204 199 196 195 194 195 195 196 196 196 197 197 198 199 200 201 202 205 208 208 207 210 212 210 209 208 211 217 221 222 223 224 224 224 226 229 232 233 234 235 235 232 228 224 218 209 199 196 199 202 204 207 208 210 214 213 211 213 214 214 216 216 214 217 220 220 220 221 220 220 222 222 224 223 219 220 224 227 229 231 231 234 236 240 244
212 208 208 204 199 197 195 195 194 194 196 195 195 195 196 196 197 197 202 208 211 210 208 206 208 208 206 207 207 210 217 220 221 222 224 225 225 227 230 232 234 235 235 235 233 232 230 220 207 200 199 201 203 205 208 209 212 216 216 214 215 216 215 216 216 216 217 221 222 222 223 221 221 223 223 224 223 220 220 222 225 229 232 233 235 237 240 243
213 209 208 204 199 196 195 194 193 193 194 193 193 195 195 195 196 198 204 210 212 213 210 205 205 205 204 206 207 210 215 218 220 222 224 226 227 228 232 235 237 236 236 235 233 229 226 215 205 201 201 202 204 207 210 212 215 217 217 216 216 217 217 217 217 217 218 221 223 225 225 221 221 223 223 223 224 220 220 221 223 228 232 235 237 239 242 244
212 210 210 205 198 195 194 194 192 192 192 191 192 194 194 196 197 200 206 209 208 211 212 208 205 204 203 204 206 209 212 216 218 220 223 225 227 229 232 236 237 237 237 236 232 226 220 212 204 203 203 205 208 210 212 214 216 218 218 217 218 217 217 218 218 219 220 222 224 226 226 221 220 224 222 222 224 221 220 223 224 228 232 235 239 242 245 247
209 210 210 203 197 194 194 193 191 190 190 190 193 194 194 196 199 201 205 207 206 208 211 210 210 208 205 205 206 207 211 215 215 217 220 222 223 226 230 233 235 237 237 234 230 225 221 213 206 205 205 207 212 212 213 216 217 219 218 218 220 219 218 219 220 221 222 223 224 225 226 222 219 222 222 221 223 222 221 223 225 230 234 236 239 243 247 250
206 209 205 198 195 194 193 191 190 190 190 191 193 193 194 197 200 201 203 206 208 208 208 209 211 213 212 210 208 208 210 212 213 215 218 220 220 222 226 230 233 235 235 231 228 226 224 216 208 206 207 209 212 213 214 217 219 220 219 219 221 221 220 220 221 223 223 224 225 225 227 224 219 220 223 222 223 224 223 224 227 230 234 238 241 243 246 249
206 206 200 195 193 192 191 191 191 190 191 193 194 193 195 196 199 201 204 207 207 206 208 209 209 212 214 213 212 211 211 212 214 215 216 218 220 220 223 226 230 232 232 231 230 228 225 219 210 207 209 211 213 214 215 218 220 220 220 220 222 224 223 221 223 225 225 225 225 225 227 227 221 218 224 225 223 224 225 226 229 231 233 237 242 246 247 249
204 201 196 193 192 191 190 190 191 191 191 193 194 193 194 196 199 202 205 209 207 205 206 208 208 211 212 213 213 214 213 214 217 217 219 222 222 221 222 224 227 229 229 229 229 227 224 219 212 209 211 213 214 216 217 220 222 222 222 222 223 226 226 224 225 226 226 226 226 225 227 229 224 218 223 226 224 225 227 229 231 233 235 237 242 248 250 252
199 196 193 192 191 190 189 189 190 191 192 193 193 193 195 197 199 202 206 208 207 206 205 205 206 209 211 212 213 214 213 215 217 217 219 222 223 224 225 226 228 230 230 227 227 226 223 220 216 212 212 213 214 218 219 220 223 223 224 224 223 226 228 227 226 227 228 227 226 226 227 230 228 221 222 227 226 225 228 231 232 234 238 241 243 247 251 254
194 193 192 191 191 190 190 191 190 190 193 194 193 193 195 198 200 203 206 206 206 206 205 204 205 206 209 210 211 212 212 213 214 215 218 220 221 222 223 225 225 227 230 230 230 229 224 221 218 215 214 214 215 217 219 221 222 223 224 225 225 226 228 229 228 228 229 228 227 228 228 230 230 225 223 227 228 226 229 233 234 235 240 244 246 248 251 254
192 191 191 191 191 190 191 192 190 191 194 194 195 196 196 197 200 203 205 205 207 206 203 204 205 204 207 209 210 212 213 213 213 214 217 220 221 222 223 226 226 227 230 231 232 230 226 223 220 217 216 216 217 218 220 221 222 223 224 225 226 226 228 230 230 230 230 229 228 229 230 231 231 228 227 230 231 230 231 235 237 237 241 245 248 249 251 254
190 189 190 190 190 190 190 190 191 193 193 193 196 198 198 199 201 202 203 205 206 205 202 204 206 206 208 208 207 209 212 214 215 216 216 218 221 222 224 227 229 232 233 235 235 233 229 225 223 220 218 218 218 219 221 222 223 225 226 226 227 229 230 231 232 233 232 232 231 232 233 233 232 231 231 232 235 235 234 237 240 240 242 244 247 250 253 256
188 189 191 190 190 190 189 190 193 194 194 195 196 197 199 202 202 202 203 204 206 204 202 204 206 207 211 211 209 208 209 212 214 217 218 218 219 221 223 225 227 230 232 234 236 237 237 234 230 226 222 221 220 221 222 224 226 227 229 230 230 232 234 234 236 237 236 236 236 236 237 235 234 234 235 234 237 238 237 239 241 242 244 246 248 251 253 256
188 190 191 190 189 188 188 192 194 195 196 197 198 198 199 201 201 203 204 204 205 204 202 204 206 208 210 212 211 210 211 212 213 214 216 218 221 223 225 226 226 228 231 231 233 235 236 237 234 229 226 225 224 224 225 225 227 228 230 232 231 232 236 237 238 239 239 239 238 238 238 237 236 237 237 236 237 239 239 240 243 244 246 248 251 252 254 256
190 191 190 190 189 187 189 193 195 196 198 199 200 200 200 200 201 204 206 206 206 205 202 202 205 208 210 211 210 210 212 213 214 216 216 218 221 223 226 229 229 231 234 234 234 234 232 233 231 228 227 228 227 228 228 228 229 230 232 234 234 234 237 240 240 240 240 241 240 239 239 238 238 239 238 238 238 239 241 243 245 248 249 250 252 254 256 257
192 192 189 188 189 189 191 194 195 197 199 201 202 202 200 201 203 205 206 207 208 207 204 205 205 205 209 211 210 210 211 212 213 215 216 218 221 222 223 226 228 232 235 235 235 235 234 234 232 228 227 228 228 229 230 229 230 231 233 235 236 237 238 240 242 242 242 243 242 241 240 239 240 240 240 240 241 241 243 244 246 249 251 253 254 255 257 259
194 191 189 188 189 191 193 194 196 197 199 201 202 201 200 203 205 206 207 207 208 208 206 208 209 207 208 210 210 210 211 212 213 213 214 216 219 222 223 224 225 227 230 232 233 233 233 233 233 230 228 229 229 230 231 231 231 231 233 234 235 237 237 238 241 243 244 246 245 244 242 241 241 241 242 243 244 245 246 246 247 249 252 254 256 257 259 260
193 190 189 189 190 192 194 195 196 198 200 201 200 200 202 204 205 207 209 209 209 209 207 208 210 210 212 213 212 211 212 214 214 214 215 216 218 221 222 225 226 226 227 229 230 230 230 230 232 232 230 229 230 231 232 233 233 233 234 234 235 237 237 237 240 242 245 247 247 246 245 243 242 242 244 245 246 247 248 249 249 250 252 254 256 258 260 262
194 192 190 190 191 193 195 196 197 199 201 201 201 201 202 203 205 207 209 210 210 211 209 209 210 211 214 216 214 213 215 218 218 218 218 218 221 223 224 227 228 227 229 230 230 231 229 228 231 232 231 230 231 232 234 235 234 234 235 236 237 238 239 240 240 241 243 246 246 246 246 245 244 243 244 246 248 249 250 251 252 252 252 254 255 258 260 262
195 194 192 191 192 194 196 197 198 200 202 201 202 204 203 203 205 207 209 209 210 211 210 209 211 212 214 216 216 214 216 220 220 220 221 221 223 225 227 230 231 228 227 229 231 232 232 230 230 231 232 232 233 234 235 235 235 235 236 237 238 239 240 241 241 241 243 246 247 248 248 246 246 245 244 246 250 252 252 252 253 254 254 255 257 259 261 262
195 194 194 193 194 196 197 199 200 202 202 202 203 205 204 204 205 208 209 209 209 210 210 208 210 212 215 217 217 216 218 221 221 220 220 221 222 225 226 227 231 231 230 231 232 233 235 235 234 234 234 233 233 234 235 236 236 236 236 237 238 238 239 241 242 242 243 244 246 248 248 246 246 247 246 246 249 251 253 254 255 257 258 259 260 261 262 263
194 194 195 195 196 198 198 200 201 202 202 203 204 205 205 206 207 208 209 208 209 210 210 210 209 211 214 216 216 215 216 220 222 221 221 222 223 224 224 223 225 229 231 230 231 231 233 236 237 237 237 236 235 235 235 236 237 237 238 239 239 241 242 243 245 244 244 244 244 246 248 246 246 248 249 248 249 251 254 256 258 260 261 262 262 261 261 262
195 195 196 197 197 199 200 201 202 203 203 204 205 207 206 207 209 210 209 208 209 210 211 212 211 211 213 216 216 216 216 218 220 218 217 221 222 221 223 223 222 226 230 230 231 232 234 236 237 237 238 238 237 237 237 238 239 240 241 241 241 242 242 242 243 244 245 245 245 247 249 249 248 250 252 252 253 254 256 259 260 261 261 261 261 260 260 259
196 194 196 198 199 199 200 201 203 205 205 205 206 208 209 209 210 212 211 209 210 212 214 214 214 213 215 217 218 217 217 220 222 220 218 220 221 219 221 222 221 222 226 230 232 234 237 238 238 238 239 238 238 239 242 244 244 243 242 242 242 243 243 243 244 244 245 247 247 248 250 250 250 251 253 255 256 257 257 258 260 260 260 259 258 258 257 257
197 196 196 197 198 200 201 202 203 205 207 207 208 210 211 212 213 213 212 211 212 214 216 217 217 216 216 219 219 218 218 220 222 223 221 221 221 221 221 222 222 222 223 227 231 233 236 237 236 237 237 236 238 242 247 247 246 246 246 246 246 246 247 246 245 244 246 248 248 249 251 251 251 252 254 254 255 256 256 256 257 257 257 256 255 255 255 255
199 198 199 199 199 200 202 203 204 206 208 210 211 212 213 213 214 215 214 214 214 216 218 219 219 219 219 219 220 219 219 220 223 224 224 224 223 224 226 226 226 227 226 228 230 233 236 238 237 238 237 235 237 240 243 243 243 244 245 246 247 248 248 247 246 246 247 247 248 249 251 252 252 252 252 253 253 253 253 252 252 253 253 255 255 256 256 256
200 200 202 204 204 204 204 205 206 208 210 211 213 215 215 215 216 217 217 216 217 218 220 221 221 221 222 222 223 223 221 221 222 224 226 227 226 226 228 229 230 230 230 231 232 233 237 239 240 242 242 240 241 243 243 243 242 242 242 242 243 245 246 246 246 247 246 246 248 250 250 251 253 251 250 251 251 251 251 252 252 252 252 253 255 256 257 257
204 202 201 203 206 207 207 207 207 209 210 212 213 216 217 218 219 220 220 219 219 220 222 223 223 223 223 223 224 225 225 223 224 225 226 227 228 228 229 231 232 233 233 234 235 236 238 241 242 244 245 245 246 247 246 245 244 243 242 243 243 244 244 246 246 247 247 248 250 252 251 251 252 251 250 251 252 252 253 254 253 253 253 253 254 254 255 255
208 206 204 204 205 207 208 208 208 210 211 212 214 216 218 219 220 222 222 222 222 224 224 225 226 225 226 226 226 226 226 226 227 229 230 231 232 233 234 236 237 238 238 239 240 240 241 243 244 246 247 247 248 250 250 249 247 246 244 244 245 245 245 246 248 250 251 252 254 255 254 254 255 255 253 253 254 254 255 255 255 255 254 254 255 254 254 254
209 209 208 208 208 207 209 211 211 213 214 215 216 218 220 221 221 223 224 224 225 226 227 228 229 229 228 228 229 229 229 229 229 230 232 234 236 237 240 240 241 242 243 243 244 244 245 246 246 247 248 249 249 251 252 253 253 250 248 246 245 245 247 249 251 253 254 255 254 253 254 258 261 258 255 255 256 256 256 257 258 257 257 255 254 254 254 254
206 210 209 209 210 209 209 211 213 215 217 219 220 222 223 224 224 224 225 225 226 227 227 227 228 230 230 230 230 231 231 231 232 231 232 233 234 236 237 237 237 238 240 241 242 243 243 244 245 246 247 249 249 249 251 253 252 250 249 249 249 249 250 252 254 254 254 254 253 254 259 264 263 257 254 254 256 256 256 256 256 256 256 255 254 254 254 254
Height
5658 5664 5670 5674 5678 5683 5688 5692 5698 5703 5708 5713 5718 5723 5728 5732 5737 5741 5744 5748 5751 5754 5758 5761 5764 5766 5768 5772 5774 5776 5778 5781 5783 5786 5788 5788 5790 5791 5794 5797 5801 5804 5809 5813 5816 5820 5822 5823 5825 5828 5832 5835 5839 5843 5845 5847 5849 5851 5853 5857 5860 5862 5864 5865 5866 5867 5869 5870 5871 5872 5873 5874 5875 5877 5878 5879 5880 5881 5882 5882 5883 5884 5884 5885 5887 5888 5890 5891
5652 5659 5665 5670 5673 5678 5683 5688 5693 5698 5703 5709 5714 5719 5724 5729 5733 5737 5741 5745 5748 5751 5755 5758 5761 5763 5766 5769 5772 5774 5776 5778 5781 5783 5784 5786 5788 5789 5792 5795 5798 5801 5806 5810 5814 5817 5819 5820 5822 5826 5829 5833 5837 5840 5843 5846 5848 5850 5853 5856 5859 5860 5861 5863 5864 5866 5869 5870 5870 5871 5872 5874 5875 5876 5878 5879 5880 5881 5882 5883 5883 5884 5884 5885 5886 5888 5889 5890
5648 5654 5660 5665 5668 5673 5678 5684 5689 5694 5699 5705 5710 5715 5720 5725 5729 5733 5738 5741 5745 5748 5751 5755 5758 5761 5764 5766 5770 5773 5775 5776 5779 5781 5782 5784 5786 5787 5789 5792 5795 5798 5802 5807 5811 5814 5817 5818 5821 5824 5826 5830 5834 5837 5841 5843 5846 5849 5852 5855 5857 5858 5860 5862 5864 5866 5868 5869 5869 5870 5872 5873 5875 5876 5877 5878 5879 5881 5882 5882 5883 5884 5885 5885 5887 5888 5889 5890
5642 5648 5655 5660 5663 5668 5674 5679 5685 5690 5696 5701 5707 5712 5716 5721 5725 5730 5734 5738 5741 5745 5748 5752 5755 5758 5760 5763 5767 5771 5772 5774 5776 5778 5780 5782 5784 5785 5787 5789 5792 5796 5799 5803 5807 5811 5814 5816 5819 5822 5823 5826 5830 5834 5837 5841 5845 5847 5850 5852 5853 5855 5858 5861 5863 5865 5866 5867 5868 5869 5871 5873 5874 5875 5876 5877 5878 5880 5881 5883 5883 5884 5885 5886 5887 5888 5889 5890
5635 5642 5649 5655 5659 5664 5670 5675 5681 5686 5692 5698 5704 5709 5713 5717 5722 5726 5731 5734 5738 5741 5745 5748 5751 5754 5757 5761 5765 5768 5769 5771 5773 5775 5778 5780 5781 5783 5785 5787 5790 5793 5797 5801 5804 5808 5811 5814 5816 5819 5822 5824 5826 5831 5835 5839 5842 5844 5848 5849 5850 5854 5858 5860 5862 5863 5865 5866 5867 5868 5870 5872 5873 5874 5875 5876 5878 5880 5882 5883 5884 5884 5885 5885 5886 5887 5888 5889
5631 5637 5643 5649 5654 5659 5666 5671 5677 5683 5689 5694 5700 5706 5710 5714 5719 5723 5727 5731 5734 5738 5742 5746 5748 5751 5755 5759 5762 5765 5767 5769 5770 5773 5776 5778 5779 5781 5783 5785 5788 5791 5794 5798 5801 5804 5808 5811 5813 5816 5820 5823 5826 5830 5834 5837 5839 5843 5846 5848 5851 5855 5859 5861 5861 5862 5864 5865 5866 5868 5869 5871 5872 5874 5875 5875 5877 5879 5880 5882 5883 5884 5884 5885 5886 5887 5888 5889
5628 5633 5638 5644 5649 5655 5661 5667 5673 5679 5685 5691 5697 5703 5707 5711 5715 5720 5724 5728 5731 5735 5739 5743 5746 5750 5753 5756 5759 5761 5765 5766 5766 5769 5773 5775 5776 5778 5781 5783 5785 5789 5791 5794 5798 5801 5805 5808 5810 5813 5816 5820 5825 5828 5831 5834 5839 5842 5844 5846 5849 5853 5857 5858 5858 5860 5862 5864 5865 5866 5868 5870 5872 5873 5874 5875 5877 5878 5879 5880 5882 5883 5884 5885 5886 5887 5888 5889
5623 5628 5634 5641 5646 5650 5657 5663 5669 5675 5681 5687 5693 5699 5704 5708 5713 5717 5721 5725 5728 5732 5737 5740 5744 5747 5749 5753 5756 5758 5762 5764 5763 5766 5769 5772 5774 5777 5779 5781 5783 5786 5788 5790 5794 5797 5801 5804 5807 5810 5812 5816 5822 5825 5828 5833 5837 5840 5841 5844 5847 5851 5853 5854 5856 5858 5860 5862 5863 5864 5866 5869 5871 5872 5873 5875 5876 5877 5878 5879 5881 5882 5883 5885 5886 5887 5888 5889
5620 5624 5630 5637 5642 5646 5652 5659 5665 5671 5678 5683 5689 5696 5701 5706 5710 5714 5718 5722 5726 5730 5734 5738 5741 5743 5746 5750 5752 5756 5762 5762 5761 5763 5766 5769 5771 5774 5777 5779 5781 5783 5785 5787 5791 5794 5798 5802 5804 5807 5809 5812 5817 5822 5827 5832 5835 5837 5839 5843 5847 5850 5852 5852 5854 5857 5858 5860 5861 5862 5865 5867 5869 5871 5872 5874 5875 5876 5878 5879 5880 5881 5882 5884 5885 5886 5887 5888
5616 5620 5624 5631 5637 5642 5648 5655 5661 5668 5674 5680 5686 5692 5697 5703 5707 5710 5714 5718 5723 5727 5731 5735 5739 5741 5744 5747 5749 5756 5760 5758 5758 5760 5763 5766 5768 5771 5774 5776 5779 5780 5782 5785 5788 5792 5796 5798 5800 5803 5806 5809 5814 5819 5824 5828 5831 5833 5836 5842 5846 5849 5850 5851 5853 5854 5856 5857 5859 5861 5863 5865 5867 5869 5871 5873 5874 5875 5877 5878 5879 5880 5881 5883 5884 5885 5886 5888
5611 5615 5619 5626 5632 5637 5644 5651 5658 5664 5671 5676 5683 5688 5694 5700 5703 5706 5711 5715 5720 5724 5729 5733 5736 5739 5742 5744 5748 5754 5754 5753 5755 5756 5760 5764 5765 5768 5771 5773 5776 5778 5780 5782 5785 5789 5791 5793 5795 5799 5803 5807 5813 5818 5822 5825 5828 5830 5835 5839 5842 5845 5847 5848 5850 5852 5853 5855 5857 5859 5861 5863 5865 5868 5871 5872 5872 5874 5876 5877 5879 5880 5881 5882 5882 5884 5885 5886
5604 5611 5616 5622 5628 5634 5641 5648 5654 5661 5667 5673 5679 5684 5690 5696 5700 5703 5708 5712 5717 5722 5726 5730 5734 5737 5740 5743 5746 5748 5749 5751 5752 5753 5757 5761 5762 5765 5768 5770 5773 5776 5777 5779 5782 5784 5786 5789 5792 5796 5800 5805 5811 5815 5819 5822 5825 5829 5833 5836 5838 5841 5843 5845 5848 5849 5852 5854 5856 5858 5859 5861 5865 5867 5868 5869 5870 5872 5874 5876 5877 5879 5880 5881 5881 5882 5883 5885
5599 5606 5613 5619 5624 5630 5637 5644 5651 5657 5663 5669 5675 5680 5686 5692 5696 5700 5705 5709 5715 5720 5723 5727 5732 5736 5738 5740 5743 5743 5746 5749 5749 5751 5755 5758 5760 5762 5765 5768 5770 5773 5775 5776 5778 5780 5783 5786 5789 5792 5797 5802 5807 5811 5815 5818 5822 5827 5830 5832 5834 5837 5839 5842 5845 5848 5850 5852 5854 5856 5858 5861 5864 5863 5864 5867 5868 5870 5872 5874 5876 5877 5878 5879 5880 5881 5882 5883
5594 5601 5609 5615 5620 5626 5633 5640 5647 5653 5659 5665 5671 5677 5682 5687 5692 5697 5701 5706 5712 5716 5720 5724 5730 5733 5734 5736 5738 5739 5743 5746 5748 5750 5753 5756 5758 5760 5763 5765 5767 5770 5772 5773 5775 5777 5779 5782 5785 5788 5793 5799 5804 5809 5812 5815 5820 5824 5826 5827 5830 5833 5836 5841 5843 5845 5848 5850 5852 5854 5857 5860 5860 5860 5862 5865 5866 5868 5870 5871 5873 5875 5876 5878 5879 5880 5881 5882
5589 5597 5605 5612 5617 5624 5629 5636 5642 5649 5655 5662 5668 5673 5678 5683 5687 5692 5697 5703 5709 5713 5717 5721 5726 5729 5730 5732 5733 5736 5740 5743 5745 5748 5751 5754 5755 5757 5760 5762 5764 5767 5769 5770 5772 5774 5776 5778 5782 5786 5791 5797 5802 5806 5809 5813 5818 5821 5822 5824 5827 5830 5834 5837 5840 5843 5846 5848 5850 5852 5856 5858 5857 5859 5862 5864 5865 5867 5868 5870 5871 5873 5874 5876 5877 5879 5880 5880
5585 5592 5600 5607 5613 5620 5626 5631 5638 5644 5651 5657 5663 5668 5674 5679 5683 5688 5694 5700 5705 5709 5714 5717 5722 5726 5726 5727 5730 5734 5738 5741 5743 5746 5749 5752 5753 5755 5757 5759 5761 5764 5766 5767 5769 5771 5773 5775 5779 5784 5789 5794 5799 5803 5806 5810 5814 5817 5819 5822 5825 5828 5831 5835 5837 5840 5843 5846 5848 5851 5854 5855 5855 5859 5861 5862 5864 5865 5866 5868 5870 5871 5873 5874 5875 5877 5878 5879
5580 5588 5595 5603 5608 5615 5621 5627 5633 5640 5646 5653 5658 5664 5670 5675 5679 5685 5690 5696 5700 5705 5710 5714 5720 5723 5720 5722 5728 5733 5736 5739 5741 5744 5746 5749 5751 5752 5754 5756 5758 5761 5763 5765 5766 5769 5771 5773 5777 5782 5787 5791 5796 5800 5803 5807 5811 5814 5816 5819 5823 5825 5828 5833 5836 5839 5843 5846 5847 5849 5853 5853 5854 5858 5859 5860 5862 5863 5865 5867 5868 5870 5871 5873 5874 5875 5876 5877
5577 5584 5591 5598 5603 5609 5615 5622 5628 5635 5642 5649 5654 5659 5665 5670 5676 5681 5686 5690 5695 5699 5703 5708 5713 5714 5715 5722 5729 5732 5735 5736 5738 5740 5743 5746 5748 5749 5751 5754 5755 5758 5760 5762 5765 5767 5769 5771 5774 5779 5784 5788 5793 5797 5801 5806 5809 5811 5813 5817 5821 5822 5826 5831 5836 5839 5842 5844 5846 5847 5851 5852 5854 5857 5857 5858 5859 5861 5863 5865 5867 5868 5870 5871 5872 5873 5874 5875
5573 5580 5587 5594 5599 5604 5610 5617 5624 5631 5638 5644 5649 5654 5659 5664 5670 5676 5679 5684 5690 5695 5701 5708 5712 5714 5719 5726 5728 5730 5732 5732 5734 5737 5741 5744 5746 5747 5749 5751 5753 5755 5758 5760 5763 5765 5768 5770 5771 5775 5781 5787 5792 5796 5800 5804 5806 5808 5813 5817 5819 5821 5826 5831 5835 5837 5839 5841 5843 5845 5849 5851 5852 5853 5854 5855 5857 5858 5861 5863 5865 5866 5867 5869 5870 5871 5872 5873
5569 5576 5582 5590 5596 5601 5607 5613 5621 5628 5635 5640 5645 5649 5653 5658 5663 5668 5675 5684 5691 5697 5703 5710 5713 5715 5720 5723 5724 5727 5727 5728 5732 5736 5739 5742 5743 5744 5746 5748 5750 5753 5756 5759 5761 5763 5766 5768 5770 5775 5781 5786 5789 5793 5797 5800 5803 5806 5810 5813 5815 5820 5825 5829 5832 5834 5836 5839 5841 5843 5845 5846 5847 5849 5851 5852 5854 5857 5860 5862 5863 5864 5865 5866 5868 5869 5870 5871
5566 5572 5579 5586 5592 5598 5603 5611 5618 5626 5633 5639 5645 5650 5655 5661 5667 5674 5683 5688 5692 5695 5699 5704 5707 5710 5715 5717 5720 5722 5722 5725 5730 5733 5735 5738 5740 5742 5744 5746 5748 5751 5754 5756 5759 5761 5763 5766 5771 5775 5780 5784 5786 5790 5794 5797 5801 5802 5804 5808 5812 5817 5821 5824 5828 5831 5833 5834 5837 5838 5839 5842 5844 5847 5849 5850 5853 5856 5858 5859 5861 5862 5863 5864 5866 5867 5868 5869
5562 5570 5576 5582 5588 5595 5601 5609 5616 5624 5630 5636 5643 5651 5658 5666 5673 5682 5687 5688 5689 5691 5696 5699 5701 5705 5710 5713 5715 5717 5718 5722 5727 5729 5732 5735 5737 5740 5742 5744 5747 5749 5752 5754 5756 5759 5761 5766 5770 5774 5777 5780 5784 5788 5791 5794 5797 5799 5802 5808 5811 5814 5817 5820 5824 5827 5829 5830 5832 5833 5835 5840 5843 5844 5846 5847 5851 5854 5856 5857 5858 5859 5860 5862 5864 5865 5866 5867
5559 5567 5573 5579 5586 5592 5599 5606 5614 5621 5627 5635 5643 5649 5656 5663 5669 5675 5679 5681 5684 5686 5690 5694 5696 5701 5705 5708 5712 5714 5716 5720 5724 5727 5730 5733 5736 5738 5740 5742 5745 5747 5749 5751 5755 5757 5760 5765 5768 5771 5773 5777 5781 5784 5787 5791 5794 5797 5803 5808 5810 5812 5815 5817 5820 5824 5826 5827 5828 5831 5833 5838 5840 5841 5843 5845 5848 5851 5852 5854 5855 5856 5858 5860 5861 5862 5864 5865
5557 5565 5570 5577 5584 5589 5596 5603 5610 5617 5626 5635 5642 5646 5653 5658 5663 5667 5670 5674 5679 5683 5687 5690 5692 5696 5700 5703 5708 5710 5713 5717 5721 5725 5728 5731 5734 5737 5739 5741 5743 5745 5747 5750 5753 5756 5759 5763 5766 5768 5770 5774 5777 5780 5784 5788 5792 5796 5800 5804 5806 5808 5811 5813 5817 5820 5822 5823 5826 5828 5830 5834 5837 5838 5840 5844 5845 5847 5849 5851 5852 5854 5856 5857 5858 5860 5861 5862
5556 5562 5567 5573 5580 5587 5593 5599 5607 5616 5624 5631 5637 5642 5649 5654 5658 5662 5665 5669 5673 5677 5682 5686 5688 5691 5695 5699 5702 5705 5710 5713 5718 5722 5726 5729 5732 5735 5737 5739 5740 5743 5745 5748 5751 5753 5756 5759 5763 5765 5769 5772 5775 5779 5783 5786 5789 5793 5797 5801 5802 5804 5807 5811 5814 5816 5818 5820 5823 5824 5826 5830 5834 5835 5838 5841 5841 5843 5846 5847 5850 5851 5852 5854 5856 5858 5859 5859
5553 5559 5564 5570 5577 5584 5589 5597 5606 5614 5621 5628 5634 5640 5645 5649 5652 5657 5662 5665 5667 5671 5676 5683 5687 5689 5692 5695 5697 5702 5706 5709 5714 5719 5722 5726 5729 5732 5734 5735 5738 5741 5743 5746 5748 5750 5753 5756 5760 5763 5766 5770 5773 5777 5781 5783 5786 5790 5794 5798 5799 5801 5805 5808 5811 5813 5815 5816 5819 5821 5822 5826 5831 5832 5834 5836 5837 5840 5843 5844 5847 5849 5850 5852 5854 5855 5856 5857
5551 5556 5561 5568 5575 5582 5589 5598 5606 5612 5619 5626 5630 5636 5641 5644 5648 5654 5658 5658 5660 5666 5672 5678 5684 5688 5691 5693 5696 5700 5702 5706 5712 5715 5718 5723 5726 5729 5731 5733 5736 5738 5740 5742 5744 5747 5750 5754 5757 5760 5763 5766 5769 5774 5778 5780 5783 5787 5791 5794 5796 5798 5801 5805 5807 5809 5810 5812 5815 5817 5819 5822 5826 5829 5831 5832 5835 5837 5840 5842 5845 5846 5848 5850 5851 5852 5853 5854
5548 5553 5560 5568 5576 5584 5592 5601 5606 5612 5619 5624 5627 5632 5636 5640 5645 5649 5651 5651 5655 5662 5668 5674 5680 5684 5687 5692 5695 5698 5701 5706 5709 5712 5716 5719 5722 5725 5728 5730 5732 5734 5737 5739 5742 5745 5749 5752 5754 5757 5761 5764 5767 5771 5775 5777 5780 5783 5788 5791 5793 5795 5798 5801 5803 5804 5806 5808 5810 5814 5816 5817 5821 5827 5828 5829 5832 5835 5838 5841 5842 5843 5845 5847 5848 5849 5850 5851
5546 5552 5559 5566 5574 5581 5589 5598 5604 5610 5615 5617 5622 5627 5631 5636 5640 5643 5645 5647 5652 5659 5665 5671 5676 5680 5684 5688 5692 5696 5700 5704 5706 5711 5715 5717 5719 5723 5725 5727 5729 5731 5734 5737 5740 5743 5747 5750 5752 5755 5758 5761 5766 5769 5772 5775 5777 5781 5784 5787 5790 5792 5794 5798 5799 5800 5802 5803 5805 5811 5813 5813 5817 5823 5824 5825 5830 5834 5837 5838 5839 5841 5843 5844 5845 5846 5847 5848
5543 5550 5556 5563 5570 5577 5585 5593 5599 5606 5609 5611 5617 5623 5626 5629 5632 5635 5637 5641 5649 5656 5662 5667 5672 5677 5681 5685 5689 5693 5697 5701 5705 5709 5711 5713 5717 5721 5723 5725 5728 5729 5732 5735 5737 5740 5744 5747 5750 5753 5756 5759 5763 5765 5769 5772 5774 5777 5780 5783 5786 5788 5790 5793 5794 5796 5796 5797 5802 5807 5810 5810 5812 5818 5821 5823 5827 5832 5834 5834 5836 5839 5840 5841 5843 5844 5844 5845
5540 5547 5555 5562 5569 5577 5584 5588 5594 5602 5606 5609 5613 5616 5618 5623 5627 5629 5632 5641 5648 5653 5659 5664 5669 5674 5679 5683 5687 5690 5694 5697 5701 5704 5706 5710 5713 5716 5718 5721 5724 5726 5729 5732 5734 5737 5740 5743 5746 5751 5754 5756 5759 5762 5765 5768 5770 5773 5776 5779 5782 5785 5786 5787 5788 5790 5790 5794 5800 5803 5806 5806 5805 5812 5818 5820 5825 5830 5831 5831 5834 5837 5837 5838 5840 5841 5841 5842
5538 5546 5554 5560 5568 5575 5581 5587 5593 5597 5601 5607 5610 5610 5613 5617 5620 5624 5632 5640 5645 5649 5657 5663 5667 5672 5676 5680 5684 5687 5690 5694 5697 5700 5703 5706 5709 5712 5715 5717 5720 5722 5724 5728 5730 5732 5736 5740 5743 5747 5751 5753 5756 5759 5761 5764 5766 5769 5771 5775 5778 5780 5781 5781 5783 5784 5786 5791 5796 5799 5800 5800 5802 5809 5816 5819 5823 5826 5828 5829 5831 5834 5834 5835 5836 5837 5838 5839
5536 5544 5550 5557 5564 5571 5579 5586 5590 5591 5595 5601 5604 5607 5611 5612 5615 5624 5633 5638 5642 5649 5657 5661 5666 5670 5672 5674 5678 5682 5687 5691 5694 5696 5699 5703 5706 5710 5713 5716 5719 5721 5724 5727 5728 5730 5733 5736 5740 5743 5747 5749 5752 5755 5758 5761 5764 5767 5769 5772 5774 5775 5775 5777 5778 5781 5784 5788 5792 5795 5796 5797 5801 5808 5813 5817 5820 5822 5825 5826 5828 5830 5831 5831 5832 5833 5834 5835
5535 5541 5547 5554 5561 5569 5577 5582 5584 5588 5592 5595 5597 5602 5606 5609 5617 5626 5630 5635 5641 5648 5653 5658 5662 5666 5668 5671 5675 5678 5682 5685 5689 5693 5697 5699 5702 5706 5709 5713 5716 5719 5721 5724 5726 5729 5731 5735 5739 5742 5744 5747 5749 5752 5756 5759 5762 5764 5766 5768 5770 5772 5773 5775 5778 5780 5783 5787 5789 5791 5791 5794 5800 5805 5809 5815 5817 5818 5821 5823 5823 5825 5827 5827 5829 5830 5831 5832
5532 5538 5545 5551 5559 5567 5573 5577 5580 5586 5588 5590 5594 5597 5599 5608 5619 5624 5626 5632 5638 5643 5650 5655 5658 5661 5664 5668 5672 5676 5679 5682 5686 5689 5692 5696 5699 5703 5707 5710 5713 5715 5717 5720 5723 5726 5729 5733 5738 5741 5743 5745 5748 5750 5753 5756 5758 5760 5761 5762 5765 5769 5771 5773 5775 5778 5781 5782 5783 5785 5787 5792 5799 5802 5805 5810 5813 5814 5817 5818 5819 5821 5822 5824 5825 5826 5827 5828
5529 5535 5542 5551 5559 5565 5569 5573 5579 5582 5585 5589 5592 5594 5601 5610 5617 5620 5625 5631 5635 5639 5646 5649 5652 5657 5660 5663 5667 5672 5676 5680 5684 5687 5690 5694 5697 5701 5705 5708 5711 5713 5715 5718 5720 5723 5726 5730 5734 5738 5740 5743 5745 5747 5750 5753 5755 5757 5757 5759 5764 5768 5769 5770 5772 5774 5776 5775 5778 5781 5785 5791 5795 5797 5800 5805 5808 5811 5813 5814 5816 5816 5818 5819 5821 5822 5823 5824
5528 5535 5542 5551 5558 5562 5566 5571 5576 5579 5583 5588 5591 5597 5607 5613 5615 5617 5623 5628 5632 5638 5643 5644 5647 5652 5656 5660 5665 5669 5673 5676 5679 5683 5688 5691 5694 5698 5702 5705 5708 5711 5713 5715 5718 5721 5725 5727 5731 5735 5738 5739 5742 5744 5746 5749 5751 5753 5754 5757 5762 5764 5765 5767 5768 5769 5771 5772 5774 5778 5783 5787 5790 5792 5797 5801 5804 5807 5809 5810 5812 5812 5813 5815 5816 5818 5819 5820
5527 5534 5540 5547 5553 5558 5563 5567 5571 5576 5580 5585 5592 5601 5607 5608 5611 5616 5620 5625 5630 5635 5641 5644 5647 5651 5654 5658 5662 5666 5669 5672 5676 5680 5684 5687 5691 5695 5698 5701 5705 5708 5709 5712 5715 5718 5722 5725 5727 5732 5735 5737 5738 5740 5742 5745 5747 5749 5751 5754 5756 5757 5761 5764 5764 5765 5768 5769 5771 5775 5779 5782 5785 5789 5794 5797 5800 5802 5804 5806 5808 5809 5809 5810 5811 5813 5814 5815
5523 5528 5534 5541 5547 5552 5558 5562 5567 5572 5575 5581 5589 5596 5600 5603 5609 5614 5618 5623 5628 5633 5638 5642 5647 5651 5654 5656 5660 5664 5667 5670 5673 5677 5680 5685 5689 5692 5695 5698 5701 5704 5706 5708 5711 5713 5717 5720 5723 5727 5731 5732 5734 5735 5738 5741 5744 5746 5748 5750 5752 5754 5757 5760 5761 5763 5765 5765 5768 5771 5773 5776 5782 5787 5791 5793 5795 5797 5799 5801 5803 5805 5805 5806 5807 5808 5809 5810
5519 5525 5530 5536 5542 5547 5553 5558 5562 5566 5571 5580 5589 5592 5595 5600 5607 5611 5614 5620 5626 5632 5637 5641 5645 5649 5652 5655 5659 5664 5667 5669 5672 5676 5679 5683 5687 5690 5693 5696 5699 5702 5704 5706 5708 5710 5713 5716 5718 5721 5725 5727 5729 5732 5735 5738 5740 5742 5744 5747 5749 5751 5753 5755 5757 5760 5760 5761 5763 5766 5767 5772 5779 5783 5786 5788 5790 5793 5795 5796 5798 5799 5801 5802 5803 5804 5805 5806
5517 5522 5527 5532 5537 5542 5547 5551 5556 5563 5572 5581 5586 5588 5592 5597 5602 5605 5610 5617 5624 5629 5635 5640 5644 5647 5650 5653 5657 5662 5665 5667 5670 5674 5677 5681 5685 5688 5692 5694 5697 5700 5701 5702 5704 5706 5709 5712 5714 5716 5719 5723 5726 5729 5732 5733 5736 5739 5741 5743 5746 5748 5749 5750 5752 5755 5757 5758 5760 5761 5763 5768 5774 5777 5783 5786 5787 5788 5789 5790 5792 5794 5795 5797 5798 5800 5800 5801
5514 5520 5525 5530 5534 5538 5543 5549 5557 5565 5571 5576 5579 5583 5589 5594 5597 5601 5607 5615 5621 5626 5631 5636 5640 5644 5647 5650 5655 5659 5662 5664 5667 5671 5675 5679 5682 5685 5689 5692 5695 5696 5698 5699 5701 5704 5706 5709 5710 5712 5715 5719 5722 5724 5726 5728 5731 5734 5736 5739 5742 5743 5744 5745 5747 5752 5754 5754 5756 5757 5756 5762 5769 5773 5779 5783 5783 5782 5783 5785 5787 5789 5790 5792 5794 5795 5795 5796
5511 5518 5523 5528 5532 5536 5542 5549 5555 5561 5566 5571 5576 5581 5586 5590 5593 5598 5604 5612 5618 5622 5627 5632 5636 5640 5643 5647 5651 5655 5659 5662 5665 5669 5674 5676 5679 5682 5685 5688 5691 5692 5694 5695 5697 5700 5702 5703 5705 5708 5710 5713 5717 5719 5721 5724 5726 5729 5732 5736 5738 5739 5741 5743 5744 5748 5748 5747 5752 5752 5749 5758 5768 5772 5775 5778 5778 5778 5779 5781 5783 5784 5786 5787 5788 5789 5790 5791
5508 5514 5519 5524 5529 5534 5540 5545 5551 5556 5561 5568 5573 5576 5581 5586 5591 5596 5602 5609 5614 5619 5623 5628 5632 5636 5640 5643 5646 5651 5655 5658 5661 5666 5669 5671 5674 5678 5680 5683 5687 5688 5689 5692 5693 5695 5697 5698 5700 5702 5704 5706 5710 5713 5716 5719 5721 5724 5728 5731 5733 5735 5736 5737 5738 5741 5739 5741 5748 5747 5745 5757 5768 5769 5770 5773 5774 5775 5777 5777 5778 5779 5780 5781 5781 5782 5784 5785
5502 5508 5515 5521 5525 5531 5538 5544 5550 5555 5558 5563 5567 5572 5578 5583 5588 5593 5600 5606 5611 5615 5620 5624 5629 5634 5637 5639 5642 5648 5652 5655 5658 5661 5664 5667 5669 5672 5675 5679 5681 5684 5686 5688 5689 5691 5692 5692 5694 5696 5697 5699 5703 5708 5713 5716 5717 5719 5722 5725 5727 5729 5730 5732 5734 5734 5732 5737 5742 5741 5744 5756 5765 5765 5766 5769 5769 5771 5773 5773 5773 5774 5774 5774 5775 5776 5777 5779
5496 5500 5506 5514 5522 5529 5536 5542 5547 5551 5555 5560 5564 5569 5574 5580 5584 5590 5596 5602 5607 5612 5616 5620 5625 5629 5632 5635 5639 5644 5648 5651 5653 5656 5660 5662 5665 5668 5671 5673 5676 5678 5681 5682 5684 5686 5685 5686 5688 5690 5692 5695 5700 5706 5710 5712 5713 5715 5718 5722 5724 5726 5727 5728 5727 5726 5729 5734 5734 5735 5743 5751 5757 5760 5762 5763 5764 5765 5766 5767 5767 5768 5767 5767 5768 5768 5770 5772
5493 5497 5501 5508 5517 5525 5532 5538 5543 5547 5552 5558 5562 5566 5571 5576 5580 5585 5591 5597 5603 5608 5611 5615 5620 5624 5628 5631 5635 5639 5643 5646 5648 5652 5655 5658 5661 5664 5666 5669 5671 5673 5676 5677 5679 5680 5680 5682 5684 5686 5688 5692 5696 5698 5700 5703 5706 5709 5712 5716 5718 5720 5721 5720 5719 5722 5729 5728 5726 5733 5741 5743 5750 5756 5756 5756 5758 5758 5758 5759 5760 5761 5761 5761 5761 5763 5764 5766
5490 5496 5503 5509 5515 5520 5526 5533 5540 5545 5549 5554 5559 5563 5567 5572 5576 5581 5588 5594 5599 5603 5606 5610 5615 5620 5625 5629 5632 5635 5638 5641 5645 5648 5651 5653 5657 5660 5662 5664 5666 5668 5670 5671 5673 5675 5676 5678 5681 5683 5685 5689 5691 5692 5693 5695 5698 5702 5704 5707 5710 5712 5712 5712 5713 5719 5723 5719 5721 5732 5736 5735 5743 5750 5749 5749 5751 5750 5751 5753 5754 5754 5755 5755 5757 5758 5759 5760
5491 5496 5502 5509 5515 5521 5526 5530 5534 5538 5542 5548 5553 5558 5563 5569 5574 5579 5585 5590 5594 5598 5602 5606 5611 5616 5620 5624 5627 5629 5632 5637 5641 5644 5646 5649 5652 5655 5657 5659 5661 5664 5665 5666 5668 5671 5672 5675 5679 5679 5681 5684 5685 5686 5689 5690 5692 5695 5698 5701 5703 5705 5705 5706 5709 5714 5716 5714 5719 5727 5728 5728 5736 5741 5742 5743 5743 5743 5746 5747 5748 5749 5749 5751 5752 5753 5753 5753
5490 5495 5500 5506 5513 5519 5524 5527 5530 5533 5538 5543 5547 5552 5558 5565 5571 5576 5581 5586 5591 5596 5600 5604 5608 5613 5616 5619 5622 5625 5629 5634 5638 5641 5644 5647 5649 5652 5654 5656 5658 5660 5661 5662 5665 5666 5669 5672 5674 5675 5676 5678 5680 5683 5685 5686 5687 5688 5691 5694 5697 5698 5699 5701 5705 5709 5711 5710 5715 5720 5719 5721 5731 5736 5737 5738 5738 5739 5741 5742 5744 5745 5746 5747 5748 5748 5747 5748
5488 5494 5500 5504 5509 5513 5518 5523 5528 5532 5535 5539 5544 5549 5554 5560 5566 5571 5576 5582 5587 5592 5597 5602 5606 5609 5612 5615 5619 5623 5628 5631 5634 5638 5641 5644 5646 5648 5650 5652 5655 5656 5657 5659 5660 5662 5666 5668 5670 5671 5670 5673 5678 5680 5680 5681 5682 5681 5683 5688 5692 5694 5696 5698 5701 5704 5705 5706 5709 5711 5711 5718 5730 5733 5732 5733 5734 5733 5735 5738 5740 5740 5741 5742 5742 5741 5741 5741
5487 5492 5497 5501 5505 5509 5514 5519 5524 5527 5532 5538 5544 5549 5552 5557 5562 5566 5570 5576 5582 5587 5593 5597 5601 5604 5607 5611 5615 5620 5624 5626 5630 5634 5636 5637 5639 5641 5642 5645 5647 5649 5651 5653 5654 5657 5660 5661 5664 5664 5664 5669 5674 5673 5674 5676 5671 5670 5679 5687 5690 5692 5693 5694 5695 5698 5700 5701 5702 5703 5708 5719 5726 5726 5726 5727 5727 5726 5729 5732 5733 5733 5734 5734 5734 5734 5734 5734